Regional Weather Roundup
Issued by NWS Cleveland, OH

Home | Current Version | Previous Version | Graphics & Text | Print | Product List | Glossary On
Versions: 1 2 3 4 5 6 7 8 9 10 11 12 13 14 15 16 17 18 19 20 21 22 23 24 25 26 27 28 29 30 31 32 33 34 35 36 37 38 39 40 41 42 43 44 45 46 47 48 49 50
000
ASUS41 KCLE 061902
RWRCLE
OHIO REGIONAL WEATHER ROUNDUP
NATIONAL WEATHER SERVICE CLEVELAND, OH
300 PM EDT WED MAY 06 2015

NOTE: "FAIR" INDICATES FEW OR NO CLOUDS BELOW 12,000 FEET WITH NO
SIGNIFICANT WEATHER AND/OR OBSTRUCTIONS TO VISIBILITY.

OHZ001>008-015>018-024>027-034-035-043-044-062000-
   NORTHWEST OHIO

CITY           SKY/WX    TMP DP  RH WIND       PRES   REMARKS
DEFIANCE       SUNNY     69  60  73 VRB7      30.20F HAZE
FINDLAY        MOSUNNY   74  59  59 NE5       30.18F
TOLEDO EXPRESS SUNNY     68  57  68 E6        30.21F
TOLEDO EXEC    PTSUNNY   66  57  72 VRB7      30.23S
LIMA           SUNNY     78  59  51 N7        30.18F
$$

OHZ009>014-019>023-028>033-038-089-062000-
   NORTHEAST OHIO

CITY           SKY/WX    TMP DP  RH WIND       PRES   REMARKS
CLE-HOPKINS    PTSUNNY   70  60  70 N9        30.22F
CLE-LAKEFRONT  PTSUNNY   55  51  86 NW5       30.21S FOG
CUY CO. ARPT   PTSUNNY   72  63  73 N12       30.21F
LORAIN-ELYRIA  MOSUNNY   73  59  61 NE10      30.20F
ASHTABULA      PTSUNNY   70  58  65 CALM      30.21F
AKRON-CANTON   PTSUNNY   81  58  45 W7        30.18F
WOOSTER        MOSUNNY   80  60  50 NE3       30.19F
MANSFIELD      SUNNY     77  60  55 NW8       30.20F
YOUNGSTOWN     CLOUDY    78  59  51 NW9       30.18F
$$

OHZ042-051>053-060>062-070>072-077>081-062000-
  SOUTHWEST OHIO

CITY           SKY/WX    TMP DP  RH WIND       PRES   REMARKS
CINC-COVINGTON PTSUNNY   83  53  35 W5        30.17F
CINC-LUNKEN    PTSUNNY   82  58  43 S5        30.16F
HAMILTON       MOSUNNY   86  51  29 SW7       30.17F
DAYTON         PTSUNNY   85  53  33 W5        30.18F
WRIGHT-PAT AFB NOT AVBL
DAYTON GENERAL MOSUNNY   82  53  36 S6        30.17F
WILMINGTON     SUNNY     82  53  36 SE7       30.17F
$$

OHZ036-037-039>041-045>050-054>059-063>069-073>076-082>088-062000-
  CENTRAL AND SOUTHEAST OHIO

CITY           SKY/WX    TMP DP  RH WIND       PRES   REMARKS
COLUMBUS       MOSUNNY   83  56  39 VRB3      30.16F
OSU AIRPORT    MOSUNNY   84  53  34 W7        30.16F
BOLTON FIELD   PTSUNNY   82  55  39 W3        30.17F
RICKENBACK AFB MOSUNNY   82  55  38 W6        30.16F
NEWARK         MOSUNNY   83  57  41 W7        30.16F
MARION         SUNNY     81  57  43 NW7       30.18F
LANCASTER      MOSUNNY   83  55  38 CALM      30.17F
ZANESVILLE     PTSUNNY   82  54  37 NW9G16    30.17F
NEW PHILLY     MOSUNNY   84  57  39 W7        30.17F
$$


USA.gov is the U.S. government's official web portal to all federal, state and local government web resources and services.